Location: 10033 Water Well
(34.0865°N, 106.8959°W)
Time: 16:05:44
(UTC+00:00)

NOSS 3-4 (C) - Pass Details

Date: 13 January 2026
Orbit: 773 x 1438 km, 63.4° (Epoch: 26 December)

Event Time Altitude Azimuth Distance (km) Brightness Sun altitude
Rises 00:37:04 0° 196° (SSW) 3,251 6.9 -4.3°
Reaches altitude 10° 00:39:30 10° 192° (SSW) 2,310 6.0 -4.8°
Maximum altitude 00:44:33 53° 116° (ESE) 958 3.3 -5.7°
Drops below altitude 10° 00:49:50 10° 40° (NE) 2,418 5.0 -6.7°
Enters shadow 00:51:26 - 37° (NE) 3,034 5.6 -7.0°
